Location: Fort McMurray
(56.7330°N, 111.3830°W)
Time: 03:50:54
(UTC-06:00)

OTV 5 (USA 277) - Visible Passes

Search period start: 22 October 2018 00:00
Search period end: 01 November 2018 00:00
Orbit: 387 x 394 km, 54.5° (Epoch: 08 September)

Date Brightness Start Highest point End Pass type
(mag) Time Alt. Az. Time Alt. Az. Time Alt. Az.
26 Oct ? 20:51:33 10° SW 20:51:39 11° SW 20:51:39 11° SW visible
27 Oct ? 19:55:41 10° SSW 19:57:31 20° SSE 19:57:31 20° SSE visible
28 Oct ? 19:00:17 10° S 19:02:01 14° SE 19:03:18 12° ESE visible
28 Oct ? 20:34:18 10° SW 20:35:41 22° SW 20:35:41 22° SW visible
29 Oct ? 19:38:13 10° SW 19:41:02 28° SSE 19:41:25 28° SE visible
29 Oct ? 21:13:28 10° WSW 21:13:47 12° WSW 21:13:47 12° WSW visible
30 Oct ? 18:42:25 10° SSW 18:44:49 20° SSE 18:47:05 11° E visible
30 Oct ? 20:17:09 10° WSW 20:19:27 37° SSW 20:19:27 37° SSW visible
31 Oct ? 19:20:56 10° SW 19:23:55 37° SSE 19:25:05 27° ESE visible
31 Oct ? 20:56:26 10° W 20:57:28 19° WSW 20:57:28 19° WSW visible
